BAW248 SBGL-EGLL

Flight info

Callsign BAW248
Flight time N/A
Altitude 35000
Route IMBAP UZ1 ESNIN UN866 USATU/N0483F370 UN866 DEKON/N0479F380 UN866 AMDOL/N0474F390 UN866 TENPA N866 GOMER/N0473F400 N981 BIMBO/N0401F240 UN729 AGADO/N0482F400 DCT KORUL DCT FEJAC DCT JSY/N0450F340 DCT REVTU UP87 ROXOG
Aircraft B772/H-SDE1E3FGHIJ3J4J5J6M1M2P2RWXYZ/LB1D1

Departure

Time N/A
Airport Rio Galeão – Tom Jobim International Airport (SBGL)

Arrival

Time 2026-05-04 08:11
Airport London Heathrow Airport (EGLL)
Time Latitude Longitude Altitude Speed Heading
2026-05-04 07:09 45.88698 -5.83702 39984 ft 497 kts 36°
2026-05-04 07:09 45.94268 -5.77824 39983 ft 496 kts 36°
2026-05-04 07:10 45.99800 -5.71970 39983 ft 496 kts 36°
2026-05-04 07:12 46.22012 -5.48317 39978 ft 496 kts 36°
2026-05-04 07:12 46.27550 -5.42382 39982 ft 496 kts 36°
2026-05-04 07:13 46.33086 -5.36434 39979 ft 496 kts 36°
2026-05-04 07:13 46.38624 -5.30468 39978 ft 495 kts 37°
2026-05-04 07:14 46.52432 -5.15524 39977 ft 496 kts 37°
2026-05-04 07:15 46.57957 -5.09518 39978 ft 496 kts 37°
2026-05-04 07:15 46.63444 -5.03539 39978 ft 496 kts 37°
2026-05-04 07:16 46.69002 -4.97464 39978 ft 496 kts 37°
2026-05-04 07:16 46.74494 -4.91447 39975 ft 497 kts 37°
2026-05-04 07:17 46.80015 -4.85382 39970 ft 497 kts 37°
2026-05-04 07:17 46.85537 -4.79300 39980 ft 497 kts 37°
2026-05-04 07:18 46.91066 -4.73194 39977 ft 498 kts 37°
2026-05-04 07:18 46.96589 -4.67078 39975 ft 498 kts 37°
2026-05-04 07:19 47.02111 -4.60948 39978 ft 498 kts 37°
2026-05-04 07:19 47.07639 -4.54794 39975 ft 498 kts 37°
2026-05-04 07:20 47.13149 -4.48644 39979 ft 498 kts 37°
2026-05-04 07:20 47.17730 -4.43518 39970 ft 497 kts 37°
2026-05-04 07:22 47.39688 -4.18791 39969 ft 496 kts 37°
2026-05-04 07:23 47.45158 -4.12589 39963 ft 496 kts 37°
2026-05-04 07:23 47.50630 -4.06369 39972 ft 496 kts 37°
2026-05-04 07:24 47.56111 -4.00121 39978 ft 497 kts 38°
2026-05-04 07:24 47.61590 -3.93859 39971 ft 497 kts 38°
2026-05-04 07:26 47.83426 -3.68730 39977 ft 496 kts 38°
2026-05-04 07:27 47.88872 -3.62421 39972 ft 496 kts 38°
2026-05-04 07:27 47.94313 -3.56099 39975 ft 496 kts 38°
2026-05-04 07:28 47.99753 -3.49761 39978 ft 495 kts 38°
2026-05-04 07:28 48.05173 -3.43429 39974 ft 494 kts 38°
2026-05-04 07:29 48.10544 -3.37137 39974 ft 494 kts 38°
2026-05-04 07:29 48.15948 -3.30789 39983 ft 493 kts 38°
2026-05-04 07:30 48.21375 -3.24397 39989 ft 493 kts 38°
2026-05-04 07:30 48.26760 -3.18037 39982 ft 493 kts 38°
2026-05-04 07:31 48.32114 -3.11696 39984 ft 492 kts 38°
2026-05-04 07:33 48.53586 -2.86086 39994 ft 492 kts 39°
2026-05-04 07:33 48.58950 -2.79645 39989 ft 492 kts 39°
2026-05-04 07:34 48.64308 -2.73191 39993 ft 493 kts 39°
2026-05-04 07:34 48.69671 -2.66713 39988 ft 493 kts 39°
2026-05-04 07:35 48.75027 -2.60227 39980 ft 493 kts 39°
2026-05-04 07:35 48.80384 -2.53782 39989 ft 495 kts 38°
2026-05-04 07:36 48.85850 -2.47411 39991 ft 496 kts 37°
2026-05-04 07:38 49.07739 -2.21682 40001 ft 496 kts 38°
2026-05-04 07:38 49.13191 -2.15212 39988 ft 496 kts 38°
2026-05-04 07:39 49.18636 -2.08735 39995 ft 495 kts 38°
2026-05-04 07:39 49.24209 -2.02657 39991 ft 495 kts 30°
2026-05-04 07:40 49.30252 -1.97578 40009 ft 495 kts 28°
2026-05-04 07:40 49.36318 -1.92553 39995 ft 495 kts 28°
2026-05-04 07:41 49.42367 -1.87437 39497 ft 502 kts 29°
2026-05-04 07:41 49.45421 -1.84830 38901 ft 503 kts 29°
2026-05-04 07:41 49.48481 -1.82212 38168 ft 503 kts 29°
2026-05-04 07:42 49.51523 -1.79610 37679 ft 497 kts 29°
2026-05-04 07:42 49.54539 -1.77030 37212 ft 492 kts 29°
2026-05-04 07:42 49.57606 -1.74766 36729 ft 487 kts 21°
2026-05-04 07:42 49.60781 -1.73200 36320 ft 483 kts 14°
2026-05-04 07:43 49.64047 -1.72168 35889 ft 478 kts
2026-05-04 07:43 49.67349 -1.71755 35439 ft 474 kts
2026-05-04 07:43 49.70636 -1.71530 34982 ft 471 kts
2026-05-04 07:43 49.73904 -1.71324 34536 ft 469 kts
2026-05-04 07:44 49.77154 -1.71102 34077 ft 467 kts
2026-05-04 07:44 49.80433 -1.70852 33535 ft 465 kts
2026-05-04 07:44 49.83619 -1.70591 33059 ft 462 kts
2026-05-04 07:44 49.86817 -1.70320 32607 ft 458 kts
2026-05-04 07:45 49.89992 -1.70049 32166 ft 455 kts
2026-05-04 07:45 49.93139 -1.69781 31729 ft 452 kts
2026-05-04 07:45 49.96270 -1.69516 31298 ft 449 kts
2026-05-04 07:45 49.99367 -1.69055 30869 ft 447 kts
2026-05-04 07:46 50.02417 -1.68120 30443 ft 445 kts 15°
2026-05-04 07:46 50.05368 -1.66731 30022 ft 442 kts 18°
2026-05-04 07:46 50.08290 -1.65261 29510 ft 440 kts 18°
2026-05-04 07:46 50.11187 -1.63797 29055 ft 437 kts 18°
2026-05-04 07:47 50.14082 -1.62351 28594 ft 435 kts 18°
2026-05-04 07:47 50.16955 -1.60932 28139 ft 432 kts 18°
2026-05-04 07:47 50.19782 -1.59545 27691 ft 430 kts 17°
2026-05-04 07:49 50.39453 -1.49930 24552 ft 416 kts 17°
2026-05-04 07:49 50.42212 -1.48579 24111 ft 415 kts 17°
2026-05-04 07:49 50.44972 -1.47226 23671 ft 413 kts 17°
2026-05-04 07:50 50.47707 -1.45885 23179 ft 412 kts 17°
2026-05-04 07:50 50.50445 -1.44539 22666 ft 410 kts 17°
2026-05-04 07:50 50.53150 -1.43207 22223 ft 407 kts 17°
2026-05-04 07:50 50.55767 -1.41573 21777 ft 403 kts 26°
2026-05-04 07:51 50.58220 -1.39502 21348 ft 400 kts 30°
2026-05-04 07:51 50.60129 -1.37751 20987 ft 398 kts 31°
2026-05-04 07:51 50.62224 -1.35819 20608 ft 397 kts 30°
2026-05-04 07:51 50.64612 -1.33661 20174 ft 395 kts 30°
2026-05-04 07:52 50.67012 -1.31545 19740 ft 394 kts 29°
2026-05-04 07:52 50.69410 -1.29464 19291 ft 393 kts 29°
2026-05-04 07:52 50.71775 -1.27424 18865 ft 392 kts 29°
2026-05-04 07:52 50.74165 -1.25363 18424 ft 391 kts 29°
2026-05-04 07:53 50.76546 -1.23296 17933 ft 390 kts 30°
2026-05-04 07:54 50.92226 -1.07071 14721 ft 380 kts 34°
2026-05-04 07:55 50.94435 -1.04781 14286 ft 379 kts 33°
2026-05-04 07:55 50.96611 -1.02523 13831 ft 378 kts 33°
2026-05-04 07:55 50.98811 -1.00237 13321 ft 378 kts 33°
2026-05-04 07:55 51.00949 -0.97883 12857 ft 368 kts 40°
2026-05-04 07:56 51.02716 -0.95008 12531 ft 359 kts 50°
2026-05-04 07:56 51.04305 -0.92015 12197 ft 351 kts 50°
2026-05-04 07:56 51.05881 -0.89080 11875 ft 344 kts 50°
2026-05-04 07:56 51.07437 -0.86233 11578 ft 338 kts 49°
2026-05-04 07:57 51.08974 -0.83452 11294 ft 331 kts 49°
2026-05-04 07:57 51.10493 -0.80724 11001 ft 326 kts 49°
2026-05-04 07:57 51.11982 -0.78056 10705 ft 320 kts 49°
2026-05-04 07:57 51.13452 -0.75426 10413 ft 315 kts 49°
2026-05-04 07:58 51.14901 -0.72833 10130 ft 310 kts 49°
2026-05-04 07:58 51.16305 -0.70316 9914 ft 303 kts 49°
2026-05-04 07:58 51.17690 -0.67833 9567 ft 288 kts 49°
2026-05-04 07:58 51.18991 -0.65496 9310 ft 284 kts 49°
2026-05-04 07:59 51.20317 -0.63113 9028 ft 282 kts 49°
2026-05-04 07:59 51.21609 -0.60789 8765 ft 278 kts 49°
2026-05-04 07:59 51.22887 -0.58486 8513 ft 276 kts 49°
2026-05-04 07:59 51.24151 -0.56208 8258 ft 273 kts 49°
2026-05-04 08:00 51.25404 -0.53947 8008 ft 271 kts 49°
2026-05-04 08:00 51.26651 -0.51696 7757 ft 270 kts 49°
2026-05-04 08:00 51.27895 -0.49446 7527 ft 268 kts 49°
2026-05-04 08:02 51.32643 -0.31934 6966 ft 246 kts 76°
2026-05-04 08:02 51.33080 -0.29305 6988 ft 244 kts 76°
2026-05-04 08:02 51.33515 -0.26686 6990 ft 243 kts 76°
2026-05-04 08:03 51.33957 -0.24023 6755 ft 253 kts 76°
2026-05-04 08:03 51.34262 -0.22188 6561 ft 252 kts 76°
2026-05-04 08:03 51.34710 -0.19489 6279 ft 250 kts 76°
2026-05-04 08:03 51.35149 -0.16840 6061 ft 244 kts 76°
2026-05-04 08:04 51.35582 -0.14221 5727 ft 240 kts 75°
2026-05-04 08:04 51.36237 -0.11918 5409 ft 225 kts 48°
2026-05-04 08:04 51.37514 -0.10608 5172 ft 217 kts 18°
2026-05-04 08:04 51.38988 -0.10232 4938 ft 214 kts
2026-05-04 08:05 51.40474 -0.10274 4690 ft 213 kts 357°
2026-05-04 08:05 51.41951 -0.10371 4431 ft 212 kts 358°
2026-05-04 08:05 51.43419 -0.10447 4195 ft 210 kts 358°
2026-05-04 08:05 51.44847 -0.10522 3978 ft 201 kts 358°
2026-05-04 08:06 51.46194 -0.10752 3700 ft 190 kts 340°
2026-05-04 08:06 51.47172 -0.12071 3484 ft 186 kts 298°
2026-05-04 08:06 51.47472 -0.14074 3296 ft 188 kts 278°
2026-05-04 08:06 51.47631 -0.16195 3095 ft 192 kts 278°
2026-05-04 08:08 51.47809 -0.29693 1789 ft 154 kts 270°
2026-05-04 08:08 51.47804 -0.31332 1596 ft 140 kts 270°
2026-05-04 08:10 51.47767 -0.43387 142 ft 133 kts 273°
2026-05-04 08:11 51.47771 -0.44801 96 ft 112 kts 270°
2026-05-04 08:11 51.47762 -0.46376 92 ft 44 kts 268°
2026-05-04 08:11 51.47707 -0.46705 96 ft 16 kts 244°
2026-05-04 08:12 51.47658 -0.46846 95 ft 10 kts 229°
2026-05-04 08:12 51.47603 -0.46899 93 ft 9 kts 203°
2026-05-04 08:12 51.47544 -0.46929 95 ft 9 kts 192°
2026-05-04 08:12 51.47499 -0.46990 94 ft 9 kts 248°
2026-05-04 08:13 51.47493 -0.47066 94 ft 6 kts 267°
2026-05-04 08:13 51.47492 -0.47162 91 ft 20 kts 270°
2026-05-04 08:13 51.47492 -0.47353 91 ft 16 kts 270°
2026-05-04 08:13 51.47491 -0.47537 91 ft 16 kts 269°
2026-05-04 08:14 51.47490 -0.47721 92 ft 16 kts 269°
2026-05-04 08:14 51.47489 -0.47894 93 ft 15 kts 269°
2026-05-04 08:14 51.47489 -0.48058 93 ft 15 kts 270°
2026-05-04 08:16 51.47094 -0.48357 94 ft 10 kts 180°
2026-05-04 08:16 51.47054 -0.48328 92 ft 5 kts 115°
2026-05-04 08:16 51.47049 -0.48272 93 ft 4 kts 95°
2026-05-04 08:17 51.47049 -0.48235 94 ft 2 kts 90°
2026-05-04 08:17 51.47049 -0.48231 94 ft 0 kts 90°